Location: Rounton
(54.4000°N, 1.3500°W)
Time: 05:02:37
(UTC+00:00)

S-56A Canister/Altair - Pass Details

Date: 05 December 2021
Orbit: 633 x 2499 km, 38.9° (Epoch: 17 January)

Event Time Altitude Azimuth Distance (km) Brightness Sun altitude
Rises 22:02:24 0° 200° (SSW) 5,545 - -51.6°
Reaches altitude 10° 22:08:44 10° 179° (S) 4,126 - -52.2°
Maximum altitude 22:13:18 14° 153° (SSE) 3,482 - -52.7°
Drops below altitude 10° 22:17:16 10° 126° (SE) 3,448 - -53.1°
Sets 22:21:36 0° 102° (ESE) 4,042 - -53.5°
